Regional Weather Roundup
Issued by NWS

Home | Current Version | Previous Version | Text Only | Print | Product List | Glossary Off
Versions: 1 2 3 4 5 6 7 8 9 10 11 12 13 14 15 16 17 18 19 20 21 22 23 24 25 26 27 28 29 30 31 32 33 34 35 36 37 38 39 40 41 42 43 44 45 46 47 48 49 50

000
ASUS45 KABQ 240710
RWRNM
NEW MEXICO REGIONAL WEATHER ROUNDUP
NATIONAL WEATHER SERVICE ALBUQUERQUE NM
100 AM MDT SUN SEP 24 2017

NOTE: "FAIR" MEANS FEW OR NO CLOUDS BELOW 12,000 FEET AGL WITH NO
       SIGNIFICANT WEATHER OR OBSTRUCTIONS TO VISION.

      THIS PRODUCT IS RELEASED AS TWO VERSIONS.  ONE VERSION NEAR
      THE TOP OF THE HOUR CONTAINING PRELIMINARY DATA FROM ALBUQUERQUE
      AND OTHER STATIONS.  A FINAL VERSION WITH ADDITIONAL DATA IS
      ISSUED ABOUT 10 MINUTES AFTER THE HOUR.

NMZ501-503-504-510>518-240800-
NORTHWEST PLATEAU/NORTHCENTRAL MOUNTAINS

CITY           SKY/WX    TMP DP  RH WIND       PRES   REMARKS
FARMINGTON     FAIR      45  44  97 E7        29.86S
LOS ALAMOS     CLOUDY    52  45  76 W7        29.97S
SANTA FE       MOCLDY    52  51  97 N10       29.92R
TAOS           FAIR      45  44  97 N3        29.98F
ANGEL FIRE     FAIR      39  38  95 CALM      30.03R

$$
NMZ402-403-502-505>509-240800-
WESTCENTRAL MOUNTAINS/SOUTHWEST MOUNTAINS

CITY           SKY/WX    TMP DP  RH WIND       PRES   REMARKS
GALLUP         FAIR      43  14  31 S7        29.95R
GRANTS         FAIR      41  22  47 CALM      29.96S
SILVER CITY    FAIR      53  33  46 NW9       29.91S

$$
NMZ407-409-411-412-240800-
SOUTHERN DESERTS

CITY           SKY/WX    TMP DP  RH WIND       PRES   REMARKS
DEMING         FAIR      65  36  34 W14       29.85R
LAS CRUCES     FAIR      67  41  38 W6        29.87R
HOLLOMAN AFB   FAIR      71  60  67 SE6       29.84R
ALAMOGORDO     FAIR      70  61  73 SW8       29.84R
T OR C         FAIR      65  37  35 NW7       29.84R

$$
NMZ519>523-240800-
CENTRAL VALLEYS/CENTRAL HIGHLANDS

CITY           SKY/WX    TMP DP  RH WIND       PRES   REMARKS
ALBUQUERQUE    MOCLDY    61  53  75 NW8       29.88R
MORIARTY ARPT  FAIR      57  57 100 SW7       29.92R
CLINES CORNERS FAIR      56  54  93 S12       29.96S
BELEN          CLOUDY    63  23  22 NW12      29.87S
SOCORRO        FAIR      63  39  41 CALM      29.84R

$$
NMZ524>526-539-540-240800-
SOUTHCENTRAL MOUNTAINS

CITY           SKY/WX    TMP DP  RH WIND       PRES   REMARKS
RUIDOSO        CLOUDY    57  57 100 SE10      30.00R FOG

$$
NMZ527>531-240800-
NORTHEAST HIGHLANDS/NORTHEAST PLAINS

CITY           SKY/WX    TMP DP  RH WIND       PRES   REMARKS
LAS VEGAS      CLOUDY    49  47  93 E7        29.96R
RATON          NOT AVBL
CLAYTON        CLOUDY    57  57 100 SE9       29.91R

$$
NMZ532>537-240800-
EASTCENTRAL PLAINS

CITY           SKY/WX    TMP DP  RH WIND       PRES   REMARKS
SANTA ROSA     CLOUDY    63  62  97 S12G22    29.86R
TUCUMCARI      FAIR      67  63  87 S15       29.83R
CANNON AFB     MOCLDY    64  64 100 SE10      29.87R
CLOVIS AIRPORT FAIR      65  60  84 S21G29    29.87R

$$
NMZ028-029-538-240800-
SOUTHEAST PLAINS

CITY           SKY/WX    TMP DP  RH WIND       PRES   REMARKS
ROSWELL        MOCLDY    65  63  93 S12       29.84F
ARTESIA        FAIR      66  66 100 S20       29.83F
CARLSBAD       LGT RAIN  64  64 100 SE10      29.82F
HOBBS          MOCLDY    64  64 100 SE15G24   29.86R


$$




USA.gov is the U.S. government's official web portal to all federal, state and local government web resources and services.